Home > Weather > Loma Linda > Past weeks

Flag for USA Past Weather in Loma Linda, California, USA — Yesterday and Last 2 Weeks

Now
75 °F

Clear.


Feels Like: 77 °F
Forecast: 69 / 99 °F
Wind: No wind

Location: Norton Air Force Base / San Bern

Current Time: Jul 28, 2016 at 7:32:15 AM

Latest Report: Jul 28, 2016 at 6:54 AM


Visibility: 10 mi

Pressure: 29.94 "Hg

Humidity: 36%

Dew Point: 46 °F

Location of Loma LindaLocation

Past Weather in Loma Linda — Graph

°F

Loma Linda Temperature Yesterday

Maximum temperature yesterday: 102 °F (at 1:51 PM)
Minimum temperature yesterday: 76 °F (at 6:15 AM)
Average temperature yesterday: 85 °F

High & Low Weather Summary for the Past Weeks

 TemperatureHumidityPressure
High111 °F (Jul 23, 2:47 PM)83% (Jul 16, 5:54 AM)30.05 "Hg (Jul 16, 5:54 AM)
Low64 °F (Jul 16, 6:14 AM)7% (Jul 20, 12:49 PM)29.77 "Hg (Jul 23, 3:47 PM)
Average81 °F39%29.95 "Hg
* Reported Jul 13 6:14 AM — Jul 28 6:14 AM, Loma Linda, Weather by CustomWeather, © 2016

Note: Actual official high and low records may vary slightly from our data, if they occured in-between our weather recording intervals... More about our weather records

Advertising

Loma Linda Weather History for the Previous 24 Hours

Scroll right to see more
 ConditionsComfort  
Time TempWeatherWind HumidityBarometerVisibility
6:14 AM
Thu, Jul 28
75 °FClear.No wind36%29.93 "Hg10 mi
5:54 AM75 °FClear.No wind35%29.93 "Hg10 mi
5:34 AM74 °FClear.No wind37%29.93 "Hg10 mi
4:54 AM76 °FClear.No wind36%29.92 "Hg10 mi
4:34 AM76 °FClear.No wind37%29.92 "Hg10 mi
4:14 AM76 °FClear.No wind36%29.92 "Hg10 mi
3:54 AM77 °FClear.No wind39%29.92 "Hg10 mi
3:34 AM77 °FClear.No wind40%29.92 "Hg10 mi
3:14 AM78 °FClear.No wind39%29.92 "Hg10 mi
2:54 AM78 °FClear.No wind39%29.92 "Hg10 mi
2:34 AM79 °FClear.No wind35%29.92 "Hg10 mi
2:14 AM79 °FClear.No wind33%29.92 "Hg10 mi
1:54 AM80 °FClear.3 mph32%29.92 "Hg10 mi
1:34 AM80 °FClear.No wind31%29.92 "Hg10 mi
1:14 AM81 °FClear.3 mph30%29.92 "Hg10 mi
12:54 AM81 °FClear.3 mph30%29.92 "Hg10 mi
12:34 AM82 °FClear.3 mph28%29.92 "Hg10 mi
12:14 AM83 °FClear.No wind28%29.93 "Hg10 mi
11:54 PM
Wed, Jul 27
83 °FClear.3 mph27%29.93 "Hg10 mi
11:34 PM83 °FClear.3 mph27%29.93 "Hg10 mi
11:14 PM82 °FClear.5 mph27%29.93 "Hg10 mi
10:54 PM83 °FClear.6 mph26%29.93 "Hg10 mi
10:34 PM84 °FClear.6 mph25%29.93 "Hg10 mi
10:14 PM85 °FClear.6 mph24%29.93 "Hg10 mi
9:54 PM86 °FClear.6 mph23%29.93 "Hg10 mi
9:34 PM87 °FClear.6 mph22%29.92 "Hg10 mi
9:14 PM87 °FClear.6 mph22%29.91 "Hg10 mi
8:49 PM88 °FSunny.7 mph22%29.91 "Hg10 mi
7:47 PM91 °FSunny.9 mph20%29.90 "Hg10 mi
6:50 PM93 °FSunny.12 mph21%29.89 "Hg10 mi
5:50 PM97 °FPassing clouds.13 mph22%29.88 "Hg10 mi
4:50 PM100 °FScattered clouds.13 mph18%29.88 "Hg10 mi
3:50 PM102 °FScattered clouds.10 mph15%29.88 "Hg10 mi
2:47 PM102 °FScattered clouds.13 mph14%29.90 "Hg10 mi
1:51 PM102 °FScattered clouds.12 mph14%29.91 "Hg10 mi
12:57 PM100 °FPassing clouds.6 mph16%29.92 "Hg10 mi
11:47 AM97 °FPassing clouds.8 mph16%29.94 "Hg10 mi
10:47 AM95 °FPassing clouds.6 mph15%29.95 "Hg10 mi
9:50 AM91 °FPassing clouds.No wind20%29.94 "Hg10 mi
8:45 AM86 °FSunny.No wind27%29.95 "Hg10 mi
7:48 AM81 °FSunny.No wind32%29.94 "Hg10 mi
7:00 AM77 °FSunny.No wind36%29.93 "Hg10 mi
Weather by CustomWeather, © 2016

See weather overviewHow to use our weather pages